Location: Newark
(51.5700°N, 17.6700°E)
Time: 12:46:39
(UTC+00:00)

Envisat - Visible Passes

Search period start: 08 December 2019 00:00
Search period end: 18 December 2019 00:00
Orbit: 764 x 766 km, 98.1° (Epoch: 08 December)

Date Brightness Start Highest point End Pass type
(mag) Time Alt. Az. Time Alt. Az. Time Alt. Az.
08 Dec 6.0 04:15:59 10° NE 04:18:42 14° E 04:21:25 10° ESE visible
08 Dec 3.1 05:53:23 10° NNE 05:58:32 86° ESE 06:03:36 10° SSW visible
08 Dec 3.6 15:35:06 10° SE 15:39:35 33° ENE 15:44:06 10° N visible
08 Dec 4.1 17:13:40 10° S 17:18:30 44° W 17:23:22 10° NNW visible
09 Dec 4.3 05:16:45 10° NNE 05:21:38 44° E 05:26:28 10° S visible
09 Dec 3.0 16:36:31 10° SSE 16:41:37 86° WSW 16:46:44 10° NNW visible
09 Dec 5.9 18:18:45 10° WSW 18:21:26 14° W 18:24:07 10° NW visible
10 Dec 5.5 04:40:31 10° NE 04:44:33 23° E 04:48:33 10° SE visible
10 Dec 3.1 16:00:01 10° SE 16:04:55 50° ENE 16:09:50 10° N visible
10 Dec 5.0 17:39:53 10° SSW 17:44:12 28° W 17:48:33 10° NW visible
11 Dec 6.2 04:05:33 10° ENE 04:07:15 11° E 04:08:57 10° ESE visible
11 Dec 3.4 05:42:07 10° NNE 05:47:13 71° ESE 05:52:18 10° S visible
11 Dec 3.8 15:24:09 10° ESE 15:28:24 28° ENE 15:32:40 10° N visible
11 Dec 3.7 17:02:12 10° S 17:07:10 54° W 17:12:11 10° NNW visible
12 Dec 4.7 05:05:35 10° NNE 05:10:17 36° E 05:14:57 10° SSE visible
12 Dec 2.9 16:25:16 10° SSE 16:30:20 79° ENE 16:35:27 10° NNW visible
12 Dec 5.7 18:06:39 10° SW 18:10:00 17° W 18:13:21 10° NW visible
13 Dec 5.8 04:29:33 10° NE 04:33:08 19° E 04:36:42 10° SE visible
13 Dec 3.3 15:48:57 10° SE 15:53:41 42° ENE 15:58:28 10° N visible
13 Dec 4.7 17:28:15 10° SSW 17:32:49 33° W 17:37:25 10° NNW visible
14 Dec 3.7 05:30:52 10° NNE 05:35:55 58° E 05:40:55 10° S visible
14 Dec 3.4 16:50:48 10° S 16:55:51 66° WSW 17:00:56 10° NNW visible
14 Dec 6.2 18:35:01 10° W 18:35:54 10° W 18:36:47 10° WNW visible
15 Dec 5.1 04:54:26 10° NNE 04:58:54 30° E 05:03:21 10° SSE visible
15 Dec 2.9 16:14:03 10° SSE 16:19:04 66° ENE 16:24:08 10° N visible
15 Dec 5.4 17:54:45 10° SW 17:58:34 21° W 18:02:25 10° NW visible
16 Dec 6.0 04:18:42 10° NE 04:21:42 16° E 04:24:41 10° ESE visible
16 Dec 3.0 05:56:19 10° NNE 06:01:27 88° WNW 06:06:32 10° SSW visible
16 Dec 3.6 15:37:55 10° SE 15:42:29 35° ENE 15:47:04 10° N visible
16 Dec 4.3 17:16:41 10° SSW 17:21:28 41° W 17:26:16 10° NNW visible
17 Dec 4.1 05:19:39 10° NNE 05:24:35 48° E 05:29:29 10° S visible
17 Dec 3.1 16:39:27 10° SSE 16:44:33 80° WSW 16:49:40 10° NNW visible
17 Dec 6.0 18:22:05 10° WSW 18:24:25 13° W 18:26:47 10° WNW visible
